Flag for Austria Weather past 2 weeks in Perg, Upper Austria, Austria

Now
35 °F

Chilly.


Feels Like: 30 °F
Forecast: 20 / 36 °F
Wind: 5 mph from West

Location: Amstetten

Current Time: Jan 27, 2015 at 10:25:03 AM

Latest Report: Jan 27, 2015 at 9:00 AM


Visibility: N/A

Pressure: 30.07 "Hg

Humidity: 92%

Dew point: 33 °F

Location of PergLocation

Historic Weather in Perg — Graph

°F

Perg temperature yesterday

Maximum temperature yesterday: 35 °F (at 3:00 PM)
Minimum temperature yesterday: 28 °F (at 11:00 PM)
Average temperature yesterday: 33 °F

Past Weeks' High & Low Weather Summary

 TemperatureHumidityPressure
High49 °F (Jan 13, 2:00 PM)100% (Jan 27, 7:00 AM)30.37 "Hg (Jan 27, 7:00 AM)
Low26 °F (Jan 14, 5:00 AM)48% (Jan 13, 2:00 PM)29.74 "Hg (Jan 17, 4:00 AM)
Average36 °F88%30.06 "Hg
* Reported Jan 12 9:00 AM — Jan 27 9:00 AM, Perg, Weather by CustomWeather, © 2014

Note: Actual official high and low records may vary slightly from our data, if they occured in-between our weather recording intervals... More about our weather records

Advertising

Perg weather history for previous 24 hours

 ConditionsComfort  
Time TempWeatherWind HumidityBarometerVisibility
9:00 AM
Jan 27
35 °FChilly.5 mph92%30.07 "HgN/A
8:00 AM34 °FFog.3 mph97%30.06 "HgN/A
7:00 AM32 °FLight snow. Overcast.1 mph100%30.04 "HgN/A
5:00 AM30 °FFog.1 mph98%30.03 "HgN/A
4:00 AM29 °FChilly.1 mph98%30.03 "HgN/A
3:00 AM29 °FFog.1 mph97%30.05 "HgN/A
2:00 AM30 °FFog.2 mph93%30.08 "HgN/A
1:00 AM28 °FChilly.1 mph96%30.10 "HgN/A
12:00 AM28 °FChilly.1 mph96%30.13 "HgN/A
11:00 PM
Jan 26
28 °FChilly.1 mph95%30.16 "HgN/A
10:00 PM29 °FChilly.1 mph95%30.18 "HgN/A
9:00 PM30 °FChilly.1 mph95%30.20 "HgN/A
8:00 PM32 °FChilly.1 mph91%30.22 "HgN/A
7:00 PM32 °FChilly.1 mph89%30.23 "HgN/A
4:00 PM35 °FChilly.3 mph82%30.26 "HgN/A
3:00 PM35 °FChilly.5 mph81%30.28 "HgN/A
2:00 PM35 °FChilly.3 mph81%30.30 "HgN/A
1:00 PM35 °FChilly.3 mph81%30.32 "HgN/A
12:00 PM35 °FChilly.2 mph79%30.34 "HgN/A
11:00 AM34 °FChilly.2 mph82%30.35 "HgN/A
10:00 AM33 °FChilly.2 mph85%30.37 "HgN/A
Weather by CustomWeather, © 2014

See weather overviewHow to use our weather pages